Location: Auckland
(36.8670°S, 174.7670°E)
Time: 19:52:01
(UTC+12:00)

A-11 Canister half - Pass Details

Date: 25 July 2019
Orbit: 1526 x 1682 km, 47.3° (Epoch: 25 August)

Event Time Altitude Azimuth Distance (km) Brightness Sun altitude
Rises 07:57:17 0° 302° (WNW) 4,673 11.2 4.8°
Reaches altitude 10° 08:00:17 10° 301° (WNW) 3,700 10.7 5.4°
Maximum altitude 08:09:40 83° 212° (SSW) 1,572 9.2 7.0°
Drops below altitude 10° 08:19:21 10° 123° (ESE) 3,808 11.5 8.6°
Sets 08:22:30 0° 122° (ESE) 4,816 12.0 9.1°
